Location: Chippewa Lake
(41.0698°N, 81.9010°W)
Time: 01:49:05
(UTC+00:00)

Cosmos 1953 - Pass Details

Date: 09 May 2021
Orbit: 540 x 555 km, 82.5° (Epoch: 24 June)

Event Time Altitude Azimuth Distance (km) Brightness Sun altitude
Rises 08:25:11 0° 345° (NNW) 2,708 6.3 -18.0°
Reaches altitude 10° 08:27:24 10° 338° (NNW) 1,813 5.2 -17.7°
Maximum altitude 08:31:10 42° 267° (W) 780 2.7 -17.2°
Enters shadow 08:31:59 37° 235° (SW) 854 2.7 -17.1°
